Погода в Драхтене

Нидерланды     53°06′10″N   6°05′01″E
темп.,
°C
ветер,
м/с
пор.,
м/с
влажн.,
%
обл.,
%
осадки,
мм/ч
давл.,
гПа
погр.,
м
8 мая, сб
сб823:00+3зюз33915 0.0 101844
02:00+3юз22924 0.0 101826
05:00+2ю349369 0.0 101648
08:00+5ююв4782100 0.0 1016188
11:00+10ююв61064100 0.0 1014611
14:00+11ю61178100 0.4 10121339
17:00+8ююв91694100 3.9 1008823
20:00+10ююз91894100 5.9 1006765
9 мая, вс
вс923:00+11ююз61596100 0.1 1006461
02:00+12ююз6139699 0.1 1005330
05:00+10ю51396100 0.0 1004280
08:00+12ююв41193100 0.0 1004257
11:00+16ю61382100 0.1 1003496
14:00+18ю71283100 1.0 1002852
17:00+22ююз61171100 0.0 10011571
20:00+19ююз61281100 1.4 1001325
10 мая, пн
пн1023:00+15ююз2397100 3.6 100171
02:00+15ю4796100 4.2 1001150
05:00+15ююв41195100 1.1 1000377
08:00+15ююв91794100 1.6 999717
11:00+12зюз71393100 0.5 1002540
14:00+12юз61290100 0.8 1006651
17:00+16юз576678 0.0 10071283
20:00+14з2481100 0.1 1008100
11 мая, вт
вт1123:00+11юв0081100 0.0 101010
02:00+10всв2283100 0.0 101015
05:00+10всв3488100 0.0 101078
08:00+12в2292100 0.1 1010138
11:00+14вюв5786100 1.3 1010428
14:00+16юв6677100 3.1 10091052
17:00+15вюв4678100 1.5 1009899
20:00+13вюв4887100 3.2 1009319
12 мая, ср
ср1223:00+10в389585 0.1 1009205
02:00+9в389694 0.1 1009194
05:00+8вюв2595100 0.0 1009109
08:00+10ююв2390100 0.1 1008146
11:00+11ю2388100 0.1 1009208
14:00+13з468497 0.4 1009774
17:00+14зюз676999 0.2 10091381
20:00+12зюз47830 0.3 1010486